Change the Weather History Date:

Wednesday, September 11, 2013

  Actual Average Record
Temperature  
Mean Temperature 60 °F -  
Max Temperature 73 °F 67 °F 86 °F (2005)
Min Temperature 46 °F 45 °F 32 °F (1999)
Degree Days  
Heating Degree Days 6    
Growing Degree Days 10 (Base 50)    
Moisture  
Dew Point 52 °F    
Average Humidity 80    
Maximum Humidity 100    
Minimum Humidity 38    
Precipitation  
Precipitation 0.00 in - - ()
Sea Level Pressure  
Sea Level Pressure 29.99 in    
Wind  
Wind Speed 4 mph (WNW)    
Max Wind Speed 21 mph    
Max Gust Speed 29 mph    
Visibility 6 miles    
Events Fog , Rain    
Averages and records for this station are not official NWS values.
T = Trace of Precipitation, MM = Missing Value Source: NWS Daily Summary

Daily Weather History Graph

Daily Weather History Graph

Search for Another Location

Airport or City:

Trip Planner

Search our weather history database for the weather conditions in past years. The results will help you decide how hot, cold, wet, or windy it might be!

Date:

Astronomy

Sep. 11, 2013 Rise Set
Actual Time 6:42 AM CDT 7:29 PM CDT
Civil Twilight 6:11 AM CDT 8:00 PM CDT
Nautical Twilight 5:34 AM CDT 8:37 PM CDT
Astronomical Twilight 4:55 AM CDT 9:16 PM CDT
Moon 1:37 PM CDT (9/11) 10:59 PM CDT (9/11)
Length of Visible Light 13h 49m
Length of Day
12h 47m
Waxing Crescent, 39% of the Moon is Illuminated
Sep 11
Waxing Crescent
Sep 12
First Quarter
Sep 19
Full
Sep 26
Last Quarter
Oct 4
New

Hourly Weather History & Observations

Time (CDT) Temp. Dew Point Humidity Pressure Visibility Wind Dir Wind Speed Gust Speed Precip Events Conditions
12:08 AM 53.6 °F 51.8 °F 94% 29.93 in 1.0 mi Calm Calm - N/A   Mist
12:27 AM 53.6 °F 51.8 °F 94% 29.94 in 1.0 mi Calm Calm - N/A   Mist
12:47 AM - - N/A% 29.94 in 1.0 mi Calm Calm - N/A   Mist
1:07 AM 51.8 °F 51.8 °F 100% 29.95 in 0.2 mi Calm Calm - N/A Fog Fog
1:27 AM 51.8 °F 51.8 °F 100% 29.95 in 0.5 mi Calm Calm - N/A Fog Fog
1:47 AM 51.8 °F 51.8 °F 100% 29.95 in 0.5 mi Calm Calm - N/A Fog Fog
2:07 AM 51.8 °F 51.8 °F 100% 29.95 in 1.0 mi Calm Calm - N/A   Mist
2:27 AM 51.8 °F 51.8 °F 100% 29.96 in 0.5 mi Calm Calm - N/A Fog Fog
2:47 AM 50.0 °F 48.2 °F 94% 29.95 in 1.0 mi Calm Calm - N/A   Mist
3:07 AM 51.8 °F 51.8 °F 100% 29.95 in 0.5 mi Calm Calm - N/A Fog Fog
3:27 AM 50.0 °F 48.2 °F 94% 29.95 in 0.2 mi Calm Calm - N/A Fog Fog
3:47 AM 51.8 °F 51.8 °F 100% 29.94 in 0.5 mi Calm Calm - N/A Fog Fog
4:07 AM 51.8 °F 51.8 °F 100% 29.94 in 0.5 mi Calm Calm - N/A Fog Fog
4:27 AM 51.8 °F 51.8 °F 100% 29.94 in 0.2 mi Calm Calm - N/A Fog Fog
4:47 AM 51.8 °F 51.8 °F 100% 29.93 in 0.5 mi Calm Calm - N/A Fog Fog
5:07 AM 50.0 °F 50.0 °F 100% 29.94 in 0.5 mi Calm Calm - N/A Fog Fog
5:27 AM 48.2 °F 46.4 °F 93% 29.94 in 1.2 mi Calm Calm - N/A   Mostly Cloudy
5:47 AM 46.4 °F 46.4 °F 100% 29.93 in 0.2 mi Calm Calm - N/A Fog Fog
6:07 AM 51.8 °F 50.0 °F 94% 29.93 in 4.0 mi SW 3.5 mph - N/A   Mostly Cloudy
6:27 AM 53.6 °F 51.8 °F 94% 29.93 in 3.0 mi SSW 4.6 mph - N/A   Overcast
6:47 AM 57.2 °F 55.4 °F 94% 29.94 in 5.0 mi West 3.5 mph - N/A   Overcast
7:07 AM 57.2 °F 55.4 °F 94% 29.94 in 1.8 mi WSW 4.6 mph - N/A   Overcast
7:27 AM 57.2 °F 55.4 °F 94% 29.94 in 0.8 mi WSW 5.8 mph - N/A   Overcast
7:47 AM 57.2 °F 55.4 °F 94% 29.95 in 0.8 mi WSW 6.9 mph - N/A   Overcast
8:07 AM 57.2 °F 55.4 °F 94% 29.95 in 2.5 mi West 6.9 mph - N/A   Overcast
8:27 AM 59.0 °F 57.2 °F 94% 29.94 in 7.0 mi WSW 4.6 mph - N/A   Overcast
8:47 AM 59.0 °F 59.0 °F 100% 29.94 in 7.0 mi WSW 5.8 mph - N/A   Overcast
9:07 AM 59.0 °F 59.0 °F 100% 29.95 in 10.0 mi WSW 5.8 mph - N/A   Overcast
9:27 AM 59.0 °F 59.0 °F 100% 29.96 in 10.0 mi West 8.1 mph - N/A   Overcast
9:47 AM 62.6 °F 60.8 °F 94% 29.97 in 10.0 mi WNW 11.5 mph - N/A   Overcast
10:07 AM 62.6 °F 60.8 °F 94% 29.97 in 10.0 mi NW 13.8 mph 21.9 mph N/A   Mostly Cloudy
10:27 AM 64.4 °F 55.4 °F 73% 29.98 in 10.0 mi NW 12.7 mph 20.7 mph N/A   Clear
10:47 AM 68.0 °F 55.4 °F 64% 29.97 in 10.0 mi NNW 12.7 mph 21.9 mph N/A   Clear
11:07 AM 69.8 °F 51.8 °F 53% 29.98 in 10.0 mi NW 15.0 mph 26.5 mph N/A   Clear
11:27 AM 69.8 °F 51.8 °F 53% 29.99 in 10.0 mi NW 16.1 mph 27.6 mph N/A   Clear
11:47 AM 71.6 °F 50.0 °F 46% 29.99 in 10.0 mi WNW 20.7 mph 27.6 mph N/A   Clear
12:07 PM 71.6 °F 50.0 °F 46% 30.00 in 10.0 mi NW 15.0 mph 27.6 mph N/A   Clear
12:27 PM 71.6 °F 50.0 °F 46% 30.00 in 10.0 mi NNW 15.0 mph 26.5 mph N/A   Scattered Clouds
12:48 PM 71.6 °F 48.2 °F 43% 30.00 in 10.0 mi WNW 16.1 mph 25.3 mph N/A   Clear
1:07 PM 71.6 °F 48.2 °F 43% 30.00 in 10.0 mi WNW 13.8 mph 26.5 mph N/A   Scattered Clouds
1:27 PM 71.6 °F 48.2 °F 43% 30.00 in 10.0 mi NNW 13.8 mph 26.5 mph N/A   Scattered Clouds
1:47 PM 71.6 °F 46.4 °F 41% 30.01 in 10.0 mi WNW 11.5 mph 21.9 mph N/A   Scattered Clouds
2:07 PM 71.6 °F 48.2 °F 43% 30.01 in 10.0 mi NW 12.7 mph 21.9 mph N/A   Clear
2:27 PM 71.6 °F 48.2 °F 43% 30.01 in 10.0 mi WNW 15.0 mph 20.7 mph N/A   Clear
2:48 PM 71.6 °F 48.2 °F 43% 30.01 in 10.0 mi WNW 9.2 mph 19.6 mph N/A   Clear
3:07 PM 71.6 °F 48.2 °F 43% 30.01 in 10.0 mi WNW 8.1 mph 18.4 mph N/A   Scattered Clouds
3:27 PM 73.4 °F 48.2 °F 41% 30.00 in 10.0 mi WNW 13.8 mph 20.7 mph N/A   Mostly Cloudy
3:48 PM 71.6 °F 46.4 °F 41% 30.01 in 10.0 mi WNW 12.7 mph 17.3 mph N/A   Scattered Clouds
4:07 PM - - N/A% 30.01 in 10.0 mi NNW 6.9 mph - N/A   Scattered Clouds
4:27 PM 73.4 °F 46.4 °F 38% 30.00 in 10.0 mi NW 8.1 mph - N/A   Mostly Cloudy
4:47 PM 71.6 °F 50.0 °F 46% 30.00 in 10.0 mi NNW 5.8 mph - N/A   Overcast
5:07 PM 71.6 °F 51.8 °F 50% 29.99 in 10.0 mi NW 4.6 mph - N/A   Mostly Cloudy
5:27 PM 71.6 °F 51.8 °F 50% 30.00 in 10.0 mi WNW 4.6 mph - N/A   Mostly Cloudy
5:47 PM 71.6 °F 51.8 °F 50% 29.99 in 10.0 mi Calm Calm - N/A   Mostly Cloudy
6:07 PM 64.4 °F 55.4 °F 73% 30.00 in 10.0 mi WSW 4.6 mph - N/A Rain Rain
6:27 PM 62.6 °F 53.6 °F 72% 30.00 in 5.0 mi WNW 6.9 mph - N/A Rain Rain
6:47 PM 60.8 °F 55.4 °F 82% 30.02 in 7.0 mi WSW 4.6 mph - N/A Rain Rain
7:07 PM 57.2 °F 53.6 °F 88% 30.09 in 5.0 mi NNW 13.8 mph 28.8 mph N/A Rain Heavy Rain
7:27 PM 57.2 °F 53.6 °F 88% 30.05 in 10.0 mi North 9.2 mph 18.4 mph N/A Rain Light Rain
7:47 PM 57.2 °F 53.6 °F 88% 30.03 in 10.0 mi Calm Calm - N/A   Overcast
8:07 PM 53.6 °F 51.8 °F 94% 30.03 in 10.0 mi Calm Calm - N/A   Mostly Cloudy
8:27 PM 53.6 °F 51.8 °F 94% 30.04 in 10.0 mi Calm Calm - N/A   Scattered Clouds
8:47 PM 51.8 °F 51.8 °F 100% 30.05 in 5.0 mi Calm Calm - N/A   Scattered Clouds
9:07 PM 51.8 °F 51.8 °F 100% 30.06 in 5.0 mi WNW 3.5 mph - N/A   Scattered Clouds
9:27 PM 51.8 °F 51.8 °F 100% 30.07 in 5.0 mi NW 3.5 mph - N/A   Clear
9:47 PM 53.6 °F 51.8 °F 94% 30.07 in 10.0 mi Calm Calm - N/A   Clear
10:07 PM 51.8 °F 50.0 °F 94% 30.07 in 5.0 mi Calm Calm - N/A   Clear
10:27 PM 51.8 °F 51.8 °F 100% 30.08 in 1.5 mi Calm Calm - N/A   Mist
10:47 PM 51.8 °F 51.8 °F 100% 30.09 in 3.0 mi Calm Calm - N/A   Clear
11:07 PM 51.8 °F 51.8 °F 100% 30.09 in 10.0 mi WNW 10.4 mph - N/A   Scattered Clouds
11:27 PM 53.6 °F 51.8 °F 94% 30.10 in 10.0 mi WNW 6.9 mph - N/A   Mostly Cloudy
11:47 PM 51.8 °F 51.8 °F 100% 30.10 in 10.0 mi WNW 6.9 mph - N/A   Overcast